Barona (240, 974, 635) Station Data

Red Flag Warning: No
Fire Weather Zone: 250
SDGE Region: Eastern
Lat/Lon: 32.935/-116.877

Observations

Time Wind Speed/Gust Temp(F) RH Fuel Moist Fuel Temp(F) Dewpt(F) Tmax(F) Tmin(F) Accum Precip 10-min Precip SL Press(mb)
3/29 8:00am 71 2 G 4 48° 63% - - 36° 49° 40° - - -
3/29 7:50am 59 2 G 3 48° 61% - - 35° 48.6° 40° - - -
3/29 7:40am 28 2 G 4 46° 63% - - 34° 48.5° 40° - - -
3/29 7:30am 143 0 G 1 44° 71% - - 35° 48.5° 40° - - -
3/29 7:20am 85 2 G 3 43° 72% - - 35° 48.5° 40° - - -
3/29 7:10am 15 2 G 3 42° 75% - - 35° 48.5° 40° - - -
3/29 7:00am 15 2 G 4 41° 77% - - 35° 48.5° 40° - - -
3/29 6:50am 55 1 G 2 41° 78% - - 35° 48.5° 40° - - -
3/29 6:40am 75 1 G 2 40° 79% - - 34° 48.5° 40° - - -
3/29 6:30am 94 2 G 3 41° 77% - - 34° 48.5° 40.2° - - -
3/29 6:20am 49 2 G 3 42° 77% - - 35° 48.5° 41° - - -
3/29 6:10am 45 1 G 3 42° 77% - - 35° 48.5° 41° - - -
3/29 6:00am 46 1 G 3 42° 77% - - 35° 48.5° 41° - - -
3/29 5:50am 9 2 G 2 42° 77% - - 35° 48.5° 41° - - -
3/29 5:40am 67 1 G 2 41° 77% - - 35° 48.5° 41° - - -
3/29 5:30am 133 1 G 2 42° 77% - - 35° 48.5° 41° - - -
3/29 5:20am 50 0 G 2 42° 77% - - 36° 48.5° 41.9° - - -
3/29 5:10am 78 2 G 3 42° 77% - - 36° 48.5° 41.9° - - -
3/29 5:00am 52 1 G 2 43° 76% - - 36° 48.5° 42° - - -
3/29 4:50am 344 2 G 3 43° 75% - - 36° 48.5° 42° - - -
3/29 4:40am 43 2 G 2 43° 76% - - 36° 48.5° 42° - - -
3/29 4:30am 54 1 G 2 43° 78% - - 36° 48.5° 42° - - -
3/29 4:20am 121 1 G 3 42° 77% - - 36° 48.5° 42° - - -
3/29 4:10am 97 2 G 3 43° 76% - - 36° 48.5° 42.6° - - -
3/29 4:00am 41 3 G 4 44° 75% - - 37° 48.5° 42.8° - - -
3/29 3:50am 8 3 G 4 44° 76% - - 37° 48.5° 42.8° - - -
3/29 3:40am 353 1 G 4 43° 79% - - 37° 48.5° 42.8° - - -
3/29 3:30am 118 2 G 4 43° 78% - - 37° 48.5° 42.9° - - -
3/29 3:20am 79 2 G 4 44° 78% - - 38° 48.5° 43.8° - - -
3/29 3:10am 69 1 G 3 45° 78% - - 38° 48.5° 43.8° - - -
3/29 3:00am 1 2 G 3 45° 78% - - 38° 48.5° 43.8° - - -
3/29 2:50am 41 2 G 3 44° 78% - - 38° 48.5° 43.8° - - -
3/29 2:40am 110 2 G 3 45° 75% - - 38° 48.5° 44.1° - - -
3/29 2:30am 10 3 G 6 46° 76% - - 39° 48.5° 45.4° - - -
3/29 2:20am 353 1 G 2 46° 78% - - 39° 48.5° 45.4° - - -
3/29 2:10am 71 2 G 3 46° 78% - - 39° 48.5° 45.4° - - -
3/29 2:00am 80 2 G 2 46° 76% - - 39° 48.5° 45.4° - - -
3/29 1:50am 79 2 G 3 46° 77% - - 39° 48.5° 45.4° - - -
3/29 1:40am 106 0 G 3 46° 76% - - 39° 48.5° 45.4° - - -
3/29 1:30am 78 2 G 3 47° 75% - - 39° 48.5° 45.4° - - -
3/29 1:20am 52 2 G 3 48° 75% - - 40° 48.5° 45.4° - - -
3/29 1:10am 355 3 G 6 46° 77% - - 40° 48.5° 45.4° - - -
3/29 1:00am 136 2 G 5 46° 77% - - 39° 48.5° 45.4° - - -
3/29 12:50am 5 2 G 4 47° 76% - - 40° 48.5° 46.4° - - -
3/29 12:40am 46 2 G 4 47° 76% - - 40° 48.5° 46.4° - - -
3/29 12:30am 89 1 G 2 47° 75% - - 39° 48.5° 46.4° - - -
3/29 12:20am 101 2 G 3 47° 72% - - 39° 48.5° 46.8° - - -
3/29 12:10am 30 1 G 3 48° 74% - - 40° 48.5° 47.3° - - -
3/29 12:00am 50 2 G 3 48° 75% - - 40° 70.7° 39.8° - - -
3/28 11:50pm 354 1 G 2 49° 73% - - 40° 70.7° 39.8° - - -
3/28 11:40pm 74 1 G 2 49° 71% - - 40° 70.7° 39.8° - - -
3/28 11:30pm 37 1 G 2 49° 71% - - 40° 70.7° 39.8° - - -
3/28 11:20pm 65 1 G 3 48° 73% - - 40° 70.7° 39.8° - - -
3/28 11:10pm 284 0 G 1 48° 72% - - 40° 70.7° 39.8° - - -
3/28 11:00pm 162 1 G 2 49° 70% - - 40° 70.7° 39.8° - - -
3/28 10:50pm 112 1 G 2 49° 70% - - 40° 70.7° 39.8° - - -
3/28 10:40pm 131 1 G 2 50° 69% - - 40° 70.7° 39.8° - - -
3/28 10:30pm 180 0 G 1 50° 69% - - 41° 70.7° 39.8° - - -
3/28 10:20pm 87 1 G 2 50° 69% - - 40° 70.7° 39.8° - - -
3/28 10:10pm 126 1 G 2 51° 69% - - 41° 70.7° 39.8° - - -
3/28 10:00pm 238 1 G 1 51° 68% - - 41° 70.7° 39.8° - - -
3/28 9:50pm 124 1 G 2 52° 66% - - 41° 70.7° 39.8° - - -
3/28 9:40pm 56 1 G 2 52° 67% - - 42° 70.7° 39.8° - - -
3/28 9:30pm 335 0 G 1 52° 68% - - 42° 70.7° 39.8° - - -
3/28 9:20pm 174 1 G 2 52° 66% - - 42° 70.7° 39.8° - - -
3/28 9:10pm 163 1 G 2 54° 63% - - 42° 70.7° 39.8° - - -
3/28 9:00pm 7 1 G 2 54° 62% - - 41° 70.7° 39.8° - - -
3/28 8:50pm 154 1 G 3 54° 60% - - 41° 70.7° 39.8° - - -
3/28 8:40pm 48 2 G 4 55° 58% - - 41° 70.7° 39.8° - - -
3/28 8:30pm 116 1 G 3 56° 58% - - 41° 70.7° 39.8° - - -
3/28 8:20pm 296 1 G 2 56° 55% - - 41° 70.7° 39.8° - - -
3/28 8:10pm 190 1 G 3 58° 48% - - 39° 70.7° 39.8° - - -
3/28 8:00pm 241 1 G 3 58° 46% - - 38° 70.7° 39.8° - - -
3/28 7:50pm 240 0 G 2 58° 47% - - 38° 70.7° 39.8° - - -
3/28 7:40pm 224 2 G 4 59° 45% - - 38° 70.7° 39.8° - - -
3/28 7:30pm 241 3 G 4 60° 45% - - 38° 70.7° 39.8° - - -
3/28 7:20pm 244 2 G 4 60° 43% - - 38° 70.7° 39.8° - - -
3/28 7:10pm 222 2 G 4 61° 43% - - 38° 70.7° 39.8° - - -
3/28 7:00pm 207 4 G 6 62° 42% - - 38° 70.7° 39.8° - - -
3/28 6:50pm 211 4 G 7 62° 41% - - 38° 70.7° 39.8° - - -
3/28 6:40pm 218 5 G 10 63° 41% - - 39° 70.7° 39.8° - - -
3/28 6:30pm 230 7 G 10 63° 41% - - 39° 70.7° 39.8° - - -
3/28 6:20pm 226 7 G 11 64° 41% - - 40° 70.7° 39.8° - - -
3/28 6:10pm 237 8 G 12 64° 41% - - 40° 70.7° 39.8° - - -
3/28 6:00pm 231 8 G 11 65° 40% - - 40° 70.7° 39.8° - - -
3/28 5:50pm 234 7 G 11 66° 38% - - 39° 70.7° 39.8° - - -
3/28 5:40pm 234 8 G 12 66° 36% - - 38° 70.7° 39.8° - - -
3/28 5:30pm 238 7 G 13 67° 35% - - 38° 70.7° 39.8° - - -
3/28 5:20pm 235 9 G 13 67° 36% - - 39° 70.7° 39.8° - - -
3/28 5:10pm 235 8 G 10 67° 38% - - 40° 70.7° 39.8° - - -
3/28 5:00pm 242 8 G 14 67° 38% - - 40° 70.7° 39.8° - - -
3/28 4:50pm 235 8 G 14 67° 37% - - 40° 70.7° 39.8° - - -
3/28 4:40pm 231 10 G 15 67° 36% - - 40° 70.7° 39.8° - - -
3/28 4:30pm 230 10 G 16 68° 36% - - 40° 70.7° 39.8° - - -
3/28 4:20pm 230 10 G 14 68° 36% - - 41° 70.7° 39.8° - - -
3/28 4:10pm 232 9 G 14 68° 37% - - 41° 70.7° 39.8° - - -
3/28 4:00pm 225 8 G 11 69° 37% - - 42° 70.7° 39.8° - - -
3/28 3:50pm 231 8 G 15 69° 38% - - 42° 70.7° 39.8° - - -
3/28 3:40pm 230 8 G 15 69° 37% - - 42° 70.7° 39.8° - - -
3/28 3:30pm 232 6 G 11 69° 37% - - 42° 70.7° 39.8° - - -
3/28 3:20pm 224 7 G 12 69° 37% - - 42° 70.7° 39.8° - - -
3/28 3:10pm 238 7 G 12 69° 38% - - 42° 70.7° 39.8° - - -
3/28 3:00pm 228 8 G 14 69° 36% - - 41° 70.7° 39.8° - - -
3/28 2:50pm 232 6 G 11 69° 33% - - 39° 70.7° 39.8° - - -
3/28 2:40pm 235 7 G 12 69° 33% - - 39° 70.7° 39.8° - - -
3/28 2:30pm 262 6 G 11 70° 33% - - 39° 70.7° 39.8° - - -
3/28 2:20pm 277 4 G 10 70° 31% - - 38° 70.7° 39.8° - - -
3/28 2:10pm 243 6 G 12 69° 32% - - 38° 70.7° 39.8° - - -
3/28 2:00pm 226 5 G 12 70° 29% - - 36° 70.7° 39.8° - - -
3/28 1:50pm 260 4 G 8 70° 27% - - 34° 70.3° 39.8° - - -
3/28 1:40pm 226 5 G 10 68° 28% - - 34° 69.4° 39.8° - - -
3/28 1:30pm 221 7 G 12 68° 26% - - 32° 69.4° 39.8° - - -
3/28 1:20pm 256 5 G 11 69° 28% - - 35° 69.4° 39.8° - - -
3/28 1:10pm 226 6 G 11 67° 29% - - 34° 68° 39.8° - - -
3/28 1:00pm 220 6 G 11 67° 30% - - 35° 67.6° 39.8° - - -
3/28 12:50pm 219 6 G 12 67° 29% - - 34° 67.1° 39.8° - - -
3/28 12:40pm 249 5 G 10 67° 27% - - 31° 67.1° 39.8° - - -
3/28 12:30pm 236 5 G 10 66° 26% - - 30° 66.3° 39.8° - - -
3/28 12:20pm 242 6 G 12 66° 30% - - 34° 66.3° 39.8° - - -
3/28 12:10pm 225 7 G 13 65° 32% - - 35° 65.9° 39.8° - - -
3/28 12:00pm 239 7 G 14 65° 34% - - 36° 65.2° 39.8° - - -
3/28 11:50am 241 8 G 12 64° 37% - - 37° 64.5° 39.8° - - -
3/28 11:40am 229 7 G 13 64° 40% - - 39° 64.5° 39.8° - - -
3/28 11:30am 240 6 G 9 64° 43% - - 41° 64.1° 39.8° - - -
3/28 11:20am 240 6 G 9 63° 44% - - 41° 63.5° 39.8° - - -
3/28 11:10am 239 6 G 8 63° 44% - - 40° 63.1° 39.8° - - -
3/28 11:00am 231 5 G 9 62° 45% - - 40° 62.8° 39.8° - - -
3/28 10:50am 234 7 G 10 61° 45% - - 40° 62.8° 39.8° - - -
3/28 10:40am 237 7 G 12 61° 44% - - 39° 62.8° 39.8° - - -
3/28 10:30am 234 8 G 12 61° 45% - - 39° 62.8° 39.8° - - -
3/28 10:20am 230 6 G 9 61° 42% - - 38° 62.8° 39.8° - - -
3/28 10:10am 187 3 G 6 62° 39% - - 37° 62.8° 39.8° - - -
3/28 10:00am 136 3 G 6 61° 40% - - 37° 61.9° 39.8° - - -
3/28 9:50am 112 2 G 4 61° 43% - - 38° 61.6° 39.8° - - -
3/28 9:40am 113 3 G 5 59° 46% - - 39° 59.9° 39.8° - - -
3/28 9:30am 101 4 G 6 59° 49% - - 40° 59.1° 39.8° - - -
3/28 9:20am 73 3 G 5 58° 53% - - 41° 58.2° 39.8° - - -
3/28 9:10am 83 1 G 3 57° 58% - - 43° 57.7° 39.8° - - -
3/28 9:00am 156 0 G 1 56° 66% - - 44° 56.8° 39.8° - - -
3/28 8:50am 68 2 G 3 53° 70% - - 43° 53.9° 39.8° - - -
3/28 8:40am 125 1 G 3 51° 76% - - 44° 52° 39.8° - - -
3/28 8:30am 127 2 G 4 49° 80% - - 43° 49.9° 39.8° - - -
3/28 8:20am 66 3 G 4 48° 82% - - 43° 48.9° 39.8° - - -
3/28 8:10am 67 2 G 3 47° 86% - - 43° 47.7° 39.8° - - -
3/28 8:00am 95 1 G 3 46° 90% - - 43° 47.7° 39.8° - - -
3/28 7:50am 107 2 G 3 44° 91% - - 42° 47.7° 39.8° - - -
3/28 7:40am 61 1 G 3 44° 92% - - 42° 47.7° 39.8° - - -
3/28 7:30am 104 0 G 1 43° 93% - - 41° 47.7° 39.8° - - -
3/28 7:20am 68 1 G 2 42° 93% - - 40° 47.7° 39.8° - - -
3/28 7:10am 184 2 G 3 40° 93% - - 38° 47.7° 39.8° - - -
3/28 7:00am 76 2 G 3 40° 93% - - 38° 47.7° 39.9° - - -
3/28 6:50am 77 3 G 4 40° 93% - - 39° 47.7° 40° - - -
3/28 6:40am 96 1 G 4 41° 93% - - 39° 47.7° 40.7° - - -
3/28 6:30am 43 2 G 3 41° 93% - - 39° 47.7° 40.7° - - -
3/28 6:20am 63 3 G 4 41° 93% - - 39° 47.7° 40.7° - - -
3/28 6:10am 130 1 G 4 41° 93% - - 39° 47.7° 40.8° - - -
3/28 6:00am 329 1 G 3 41° 93% - - 40° 47.7° 41.2° - - -